MD4008 Weather Reports


Display with metric or nautical units.
time (UTC)temp
F
wind
direction
speed
MPH
gust
MPH
rain 1hr
in
rain 24hr
in
rain mn
in
humidity
%
barometer
mb
20260906213032 85 143 3.0 0.0 0.00 0.00 0.00 29 1003.9
20260906211605 86 133 3.0 0.0 0.00 0.00 0.00 28 1004.2
20260906210002 86 148 3.0 0.0 0.00 0.00 0.00 29 1004.1
20260906204507 87 161 3.0 0.0 0.00 0.00 0.00 28 1004.1
20260906203027 86 160 2.0 0.0 0.00 0.00 0.00 28 1004.2
20260906201611 85 169 4.0 0.0 0.00 0.00 0.00 33 1004.4
20260906200115 84 139 3.0 0.0 0.00 0.00 0.00 34 1004.5
20260906194522 85 157 2.0 0.0 0.00 0.00 0.00 34 1004.6
20260906193049 83 183 2.0 0.0 0.00 0.00 0.00 37 1004.9
20260906191553 82 144 4.0 0.0 0.00 0.00 0.00 38 1005.1
20260906190121 82 134 5.0 0.0 0.00 0.00 0.00 38 1005.3
20260906184525 82 135 3.0 0.0 0.00 0.00 0.00 39 1005.4
20260906183050 81 141 3.0 0.0 0.00 0.00 0.00 39 1005.8
20260906181512 80 148 5.0 0.0 0.00 0.00 0.00 40 1006.1
20260906180057 81 165 4.0 0.0 0.00 0.00 0.00 40 1006.4
20260906174603 81 144 4.0 0.0 0.00 0.00 0.00 39 1006.6
20260906173014 81 127 3.0 0.0 0.00 0.00 0.00 38 1006.8
20260906171542 81 148 3.0 0.0 0.00 0.00 0.00 38 1007.0
20260906170114 82 142 3.0 0.0 0.00 0.00 0.00 34 1007.1
20260906164610 80 136 3.0 0.0 0.00 0.00 0.00 31 1007.2
20260906163032 79 127 3.0 0.0 0.00 0.00 0.00 31 1007.2
20260906161544 79 98 0.0 0.0 0.00 0.00 0.00 32 1007.3
20260906160106 77 40 0.0 0.0 0.00 0.00 0.00 32 1007.3
20260906154507 72 40 0.0 0.0 0.00 0.00 0.00 39 1007.2
20260906153032 70 40 0.0 0.0 0.00 0.00 0.00 42 1007.2
20260906151551 68 40 0.0 0.0 0.00 0.00 0.00 45 1007.3
20260906150113 66 51 0.0 0.0 0.00 0.00 0.00 50 1007.6
20260906144518 65 53 0.0 0.0 0.00 0.00 0.00 51 1007.5
20260906143047 63 53 0.0 0.0 0.00 0.00 0.00 56 1007.5
20260906141516 62 55 0.0 0.0 0.00 0.00 0.00 62 1007.3
20260906140039 59 55 0.0 0.0 0.00 0.00 0.00 60 1007.2
20260906134547 58 60 0.0 0.0 0.00 0.00 0.00 61 1007.5
20260906133016 58 49 0.0 0.0 0.00 0.00 0.00 70 1007.3
20260906131529 57 40 0.0 0.0 0.00 0.00 0.00 68 1007.2
20260906130058 57 57 3.0 0.0 0.00 0.00 0.00 72 1007.1
20260906124601 56 49 0.0 0.0 0.00 0.00 0.00 67 1006.9
20260906123029 57 39 0.0 0.0 0.00 0.00 0.00 59 1007.2
20260906121545 57 40 0.0 0.0 0.00 0.00 0.00 59 1007.1
20260906120150 58 40 0.0 0.0 0.00 0.00 0.00 55 1007.0
20260906114533 58 42 0.0 0.0 0.00 0.00 0.00 55 1007.0
20260906113059 58 42 0.0 0.0 0.00 0.00 0.00 55 1007.0
20260906111525 58 38 0.0 0.0 0.00 0.00 0.00 55 1006.9
20260906110057 59 37 0.0 0.0 0.00 0.00 0.00 53 1006.6
20260906104522 59 30 0.0 0.0 0.00 0.00 0.00 52 1006.6
20260906103045 59 44 1.0 0.0 0.00 0.00 0.00 52 1006.4
20260906101501 59 32 2.0 0.0 0.00 0.00 0.00 53 1006.4
20260906100018 59 34 1.0 0.0 0.00 0.00 0.00 53 1006.4
20260906094546 60 35 1.0 0.0 0.00 0.00 0.00 52 1006.4
20260906093045 59 46 0.0 0.0 0.00 0.00 0.00 54 1006.3
20260906091510 60 33 1.0 0.0 0.00 0.00 0.00 52 1006.2
20260906090017 60 20 3.0 0.0 0.00 0.00 0.00 53 1006.0
20260906084544 60 28 2.0 0.0 0.00 0.00 0.00 52 1006.1
20260906083055 60 30 0.0 0.0 0.00 0.00 0.00 53 1006.0
20260906081517 60 17 1.0 0.0 0.00 0.00 0.00 52 1006.2
20260906080053 61 46 0.0 0.0 0.00 0.00 0.00 51 1006.4
20260906074553 61 40 0.0 0.0 0.00 0.00 0.00 51 1006.5
20260906073007 62 40 0.0 0.0 0.00 0.00 0.00 50 1006.6
20260906071538 63 40 0.0 0.0 0.00 0.00 0.00 50 1006.5
20260906070110 63 38 0.0 0.0 0.00 0.00 0.00 47 1006.5
20260906064605 63 38 0.0 0.0 0.00 0.00 0.00 47 1006.3
20260906063009 64 38 0.0 0.0 0.00 0.00 0.00 45 1006.4
20260906061532 65 38 0.0 0.0 0.00 0.00 0.00 44 1006.3
20260906054637 64 44 1.0 0.0 0.00 0.00 0.00 45 1005.9
20260906053023 64 17 0.0 0.0 0.00 0.00 0.00 46 1005.8
20260906051546 65 27 0.0 0.0 0.00 0.00 0.00 45 1005.7
20260906050120 66 46 0.0 0.0 0.00 0.00 0.00 44 1005.6
20260906044519 66 64 1.0 0.0 0.00 0.00 0.00 45 1005.6
20260906043047 67 17 1.0 0.0 0.00 0.00 0.00 44 1005.3
20260906041517 67 24 1.0 0.0 0.00 0.00 0.00 43 1005.3
20260906040025 67 5 1.0 0.0 0.00 0.00 0.00 43 1005.4
20260906034536 68 17 3.0 0.0 0.00 0.00 0.00 43 1005.4
20260906033105 68 22 1.0 0.0 0.00 0.00 0.00 43 1005.4
20260906031558 67 11 3.0 0.0 0.00 0.00 0.00 44 1005.3
20260906030050 68 5 2.0 0.0 0.00 0.00 0.00 43 1004.9
20260906024601 68 342 1.0 0.0 0.00 0.00 0.00 44 1004.9
20260906023020 69 29 1.0 0.0 0.00 0.00 0.00 43 1004.8
20260906021550 69 18 0.0 0.0 0.00 0.00 0.00 44 1004.5
20260906020119 69 13 0.0 0.0 0.00 0.00 0.00 43 1004.4
20260906014520 70 360 4.0 0.0 0.00 0.00 0.00 42 1004.3
20260906013049 71 31 1.0 0.0 0.00 0.00 0.00 41 1004.4
20260906011511 71 23 3.0 0.0 0.00 0.00 0.00 43 1004.4
20260906010050 71 322 3.0 0.0 0.00 0.00 0.00 42 1004.5
20260906004526 72 9 1.0 0.0 0.00 0.00 0.00 41 1004.6
20260906003038 72 40 0.0 0.0 0.00 0.00 0.00 40 1004.6
20260906001601 71 23 1.0 0.0 0.00 0.00 0.00 46 1005.1
20260906000123 74 281 6.0 0.0 0.00 0.00 0.00 39 1005.5
20260905234524 75 355 6.0 0.0 0.00 0.00 0.00 32 1005.5
20260905233035 77 11 3.0 0.0 0.00 0.00 0.00 29 1005.1
20260905231603 78 276 1.0 0.0 0.00 0.00 0.00 28 1005.0
20260905230125 81 230 1.0 0.0 0.00 0.00 0.00 25 1004.2
20260905224527 81 111 1.0 0.0 0.00 0.00 0.00 23 1003.7
20260905223036 82 115 2.0 0.0 0.00 0.00 0.00 23 1003.5
20260905221606 83 126 3.0 0.0 0.00 0.00 0.00 22 1003.4
20260905220112 83 107 5.0 0.0 0.00 0.00 0.00 22 1003.3
20260905214522 85 143 4.0 0.0 0.00 0.00 0.00 20 1003.5